Temperature
15 15 15 15 15 15 15 15 15 15 15 15 15 15 15 15 15 15 15 15 15 15 15 15 14 14 15 15 15 15 15 15 15 15 15 14 14 14 14 14 14 14 14
14 15 14 15 15 15 15 15 15 15 15 15 14 14 14 14 15 15 15 15 15 15 15 14 14 14 14 15 15 15 15 15 15 14 14 14 14 14 14 14 14 14 14
14 14 14 14 14 14 14 14 15 15 14 14 14 14 14 14 14 14 14 14 14 14 14 14 14 14 14 15 14 14 15 14 14 14 14 14 14 14 14 14 14 14 14
14 14 14 14 14 14 14 14 14 14 14 14 14 14 14 14 14 14 14 14 14 14 14 14 14 14 14 14 14 14 14 14 14 13 13 13 13 13 13 13 13 13 13
13 13 14 14 14 14 14 14 14 14 14 14 14 14 14 14 14 14 14 14 14 14 14 14 14 14 14 14 14 14 14 14 13 13 13 13 13 13 13 13 13 13 13
13 13 13 13 13 13 13 14 14 14 14 14 14 14 14 14 14 14 14 14 14 14 14 14 14 14 14 14 14 14 14 14 13 13 13 13 13 13 13 13 13 13 13
13 13 13 13 13 13 13 13 13 13 14 14 14 14 14 14 14 14 14 14 14 14 14 14 14 14 14 14 14 14 14 13 13 13 13 13 13 13 13 13 13 13 13
12 12 13 13 13 13 13 13 13 13 13 14 13 13 13 14 14 14 14 14 14 14 14 14 14 14 14 14 14 14 13 13 13 13 13 13 13 13 13 13 13 12 12
12 12 12 12 12 12 13 13 13 13 13 13 13 13 13 13 13 13 13 13 13 13 13 14 14 14 14 13 13 13 13 13 13 12 12 12 12 12 12 12 12 12 12
12 12 12 12 12 12 12 13 13 13 13 13 13 13 13 13 13 13 13 13 13 13 13 13 13 13 13 13 13 13 13 12 12 12 12 12 12 12 12 12 12 12 12
11 11 11 11 12 12 12 12 12 12 13 13 13 13 13 13 13 13 13 13 13 13 13 13 13 13 13 13 13 12 12 12 12 12 12 12 12 12 12 12 12 11 11
10 11 11 11 11 11 12 12 12 12 12 12 12 12 12 12 12 12 12 12 12 12 12 12 12 12 12 12 12 12 12 12 12 12 12 11 11 12 12 11 11 11 11
10 10 10 11 11 11 11 11 11 11 11 12 12 12 12 12 12 12 12 12 12 12 12 12 12 12 12 12 12 12 12 11 11 11 11 11 11 11 11 11 11 11 11
10 10 10 10 11 11 11 11 11 11 11 11 11 11 11 11 11 11 12 12 12 12 12 12 12 12 12 11 11 11 11 11 11 11 11 11 11 11 11 11 10 10 10
9 9 10 10 10 10 10 10 10 10 10 11 11 11 11 11 11 11 11 11 11 11 11 11 11 11 11 11 11 11 11 11 11 11 10 10 10 10 10 10 10 10 10
9 9 10 10 10 10 10 10 10 10 10 10 10 10 10 10 10 11 11 11 11 11 11 11 11 11 10 10 10 11 10 10 10 10 10 10 10 10 10 10 10 10 10
9 9 9 9 9 9 9 9 9 9 9 9 9 9 10 10 10 10 10 10 10 10 10 10 10 10 10 10 10 10 10 10 10 10 9 10 10 10 9 9 9 9 9
8 8 9 9 9 9 9 9 9 9 9 9 9 9 9 9 9 10 10 10 10 10 10 10 10 9 10 9 10 10 10 10 10 9 9 9 9 9 9 9 9 9 9
8 8 8 8 8 8 8 8 8 8 8 8 8 9 9 9 9 9 9 9 9 9 9 9 9 9 9 9 9 9 9 9 9 9 9 9 9 9 9 8 8 8 8
8 8 8 8 8 8 8 8 8 8 8 8 8 8 8 8 8 9 9 9 9 9 9 8 8 8 8 8 8 9 9 9 9 9 9 8 8 8 8 8 8 8 8
8 8 7 8 8 8 8 7 7 7 7 7 7 7 8 8 8 8 8 8 8 8 8 8 8 8 8 8 8 8 8 8 8 8 8 8 8 8 8 8 8 7 7
7 7 7 7 7 7 7 7 6 6 6 7 7 7 7 7 7 7 7 7 7 7 7 7 7 7 7 7 7 7 7 7 7 7 7 7 7 7 7 7 7 7 7
6 6 6 6 6 6 6 6 6 6 6 6 6 6 6 7 7 7 7 7 7 7 7 7 7 7 7 7 7 6 6 6 6 7 7 7 7 7 7 7 7 7 7
6 6 6 6 6 6 6 6 5 5 5 5 6 6 6 6 6 6 6 6 6 6 6 6 6 6 6 6 6 6 6 6 6 6 6 6 6 6 6 6 6 6 6
5 5 5 5 5 5 5 5 5 5 5 5 5 5 5 5 6 6 5 5 5 5 6 6 6 6 6 6 6 6 6 6 6 6 5 6 6 6 6 6 6 6 6
5 5 5 5 5 5 5 5 4 4 4 5 5 5 5 5 5 5 5 5 5 5 5 5 5 5 5 5 5 5 5 5 5 5 5 5 5 6 6 5 5 5 5
Wind_Speed
5 7 7 7 7 8 8 8 8 7 6 7 7 7 7 7 8 8 8 9 9 9 8 8 8 8 9 9 10 10 10 10 11 11 11 10 10 10 10 10 10 10 11
5 7 8 8 8 8 8 8 7 7 6 6 7 7 7 7 7 7 8 8 8 8 8 8 8 8 8 8 8 9 9 9 9 9 9 8 8 9 9 9 10 9 10
7 8 8 8 8 8 8 8 7 6 6 6 7 6 6 6 6 6 6 6 7 7 7 7 8 8 8 8 8 8 7 7 7 7 7 6 6 8 8 8 9 8 8
7 8 8 8 8 8 8 8 8 7 7 6 6 6 6 5 5 6 5 5 6 6 6 7 7 7 7 8 8 7 6 5 4 4 4 6 6 7 7 7 7 6 7
8 9 9 9 8 8 7 8 7 7 7 6 6 5 5 5 5 5 5 5 5 5 5 6 6 6 6 6 6 5 4 4 3 2 4 7 6 6 6 6 5 5 5
7 9 9 8 8 7 7 7 7 7 6 6 6 6 5 5 5 4 4 4 5 4 5 5 5 5 5 5 5 4 3 3 3 2 4 6 6 6 5 5 4 4 4
7 8 8 8 7 7 7 6 6 6 6 5 5 5 5 5 4 4 4 4 4 4 4 4 4 4 4 4 3 2 2 3 3 3 4 5 6 5 4 3 3 3 2
7 7 7 7 7 7 6 6 5 5 5 5 5 4 4 4 4 3 3 3 3 3 3 3 3 3 3 3 3 1 1 2 3 2 4 5 5 4 3 2 2 1 1
7 7 7 7 7 6 6 6 6 4 4 4 4 4 4 4 3 2 2 3 2 2 2 2 2 2 3 3 2 0 2 3 3 2 2 4 4 2 1 1 0 0 1
6 6 6 6 6 5 5 5 5 4 3 3 3 3 3 3 3 3 2 2 2 1 1 1 2 2 3 3 2 1 2 3 3 2 2 3 3 2 1 1 1 1 0
5 5 5 5 5 4 4 4 4 3 2 2 2 2 2 2 2 2 2 2 1 1 0 1 2 2 3 3 2 2 2 3 3 1 2 2 2 2 2 1 1 0 1
3 4 3 4 4 4 3 3 2 2 1 1 1 1 1 1 1 1 1 1 0 0 0 1 2 3 2 2 2 2 3 4 2 1 0 2 3 3 3 3 2 2 2
2 3 3 3 3 3 2 2 2 2 2 2 3 2 1 1 1 1 1 1 0 0 1 1 1 1 2 2 2 3 4 3 2 1 1 3 3 4 4 4 4 3 4
3 2 2 2 2 2 3 2 2 2 2 2 3 3 2 1 1 1 1 1 1 1 1 1 1 1 2 2 2 3 3 3 2 1 2 3 3 4 5 5 5 5 5
2 2 2 1 2 1 1 1 2 2 2 2 2 2 2 1 1 1 1 1 1 1 1 1 1 1 1 2 2 3 3 3 2 1 1 3 3 4 5 6 5 5 5
2 2 2 1 1 1 1 1 1 1 2 1 1 2 2 2 1 1 1 0 1 1 2 2 2 2 2 2 2 2 3 3 2 2 2 3 4 4 5 6 5 5 6
2 2 2 1 1 1 1 1 1 1 1 1 1 1 2 2 2 1 1 1 1 2 2 2 2 2 2 2 2 2 2 2 3 2 2 3 4 4 5 5 5 6 6
2 2 2 1 1 0 1 1 1 1 1 1 1 1 2 2 2 2 1 1 2 2 2 2 2 2 2 2 2 2 2 2 2 2 2 2 3 3 4 5 6 6 7
2 3 2 1 1 0 1 1 1 0 1 1 1 1 2 2 2 2 1 2 2 1 1 2 2 1 2 2 2 3 2 3 3 2 2 1 2 3 4 5 6 7 8
1 2 2 2 1 1 1 1 1 1 1 1 1 1 1 2 3 3 2 2 2 1 2 2 2 1 2 2 2 3 3 3 3 2 2 1 2 3 3 4 5 6 8
1 1 1 2 1 1 0 1 1 1 2 2 2 2 2 3 3 2 2 2 2 2 3 2 2 2 2 1 1 2 3 3 2 2 1 1 2 3 3 4 4 4 5
1 0 1 2 2 1 1 1 2 2 2 2 2 2 3 3 3 3 3 2 3 3 3 3 2 2 2 1 1 1 1 2 2 2 2 2 2 2 3 3 3 4 4
1 1 1 1 1 1 1 1 1 1 2 2 2 2 3 4 4 4 4 4 3 3 3 4 3 3 2 2 1 1 1 2 2 2 3 3 3 3 3 3 3 4 4
1 1 1 1 1 1 1 2 2 2 3 4 3 3 4 4 4 4 4 4 4 3 3 4 4 3 3 3 2 2 2 2 2 2 2 3 3 4 3 3 3 3 4
1 0 1 1 1 1 2 2 3 3 3 3 3 3 4 3 4 4 4 4 4 4 4 4 4 3 3 4 3 2 3 3 3 2 4 3 3 3 3 3 3 3 5
1 0 1 1 2 2 2 3 3 4 4 3 4 3 3 3 3 3 3 3 4 4 4 4 4 4 4 4 3 3 2 2 2 2 3 4 4 4 4 3 3 3 3
Wind_Direction
76 78 70 66 81 86 86 85 83 84 84 91 92 89 89 89 89 84 80 77 75 73 74 77 82 80 78 77 74 75 74 75 80 81 79 80 82 84 83 78 78 77 79
92 89 77 72 78 81 80 82 81 81 85 90 92 91 93 92 91 88 85 84 81 78 78 82 83 82 80 81 79 78 76 78 82 85 83 80 82 85 84 77 80 84 80
85 88 81 76 77 80 79 78 77 82 86 92 93 92 97 96 95 93 90 88 84 80 78 83 86 85 81 79 77 80 80 82 87 90 89 85 84 89 87 81 86 86 83
90 89 81 77 76 77 79 78 75 76 83 89 96 98 98 100 104 102 97 93 88 82 80 81 85 87 85 82 78 77 78 82 86 86 91 92 86 87 89 88 87 87 87
85 84 81 75 74 75 79 78 76 74 75 77 84 96 99 94 100 107 105 99 92 86 82 81 86 90 88 86 80 75 69 58 33 36 76 89 86 89 86 87 87 88 88
84 86 86 79 73 74 76 80 80 77 75 74 73 78 86 89 88 94 98 98 95 92 88 86 91 97 95 91 84 74 53 22 4 30 65 86 90 92 87 85 83 89 95
77 83 94 85 77 73 72 78 84 82 77 75 76 75 72 74 79 82 91 101 104 100 99 102 103 110 110 105 95 77 26 351 10 35 68 84 97 100 92 87 82 84 97
79 78 90 87 81 74 69 67 73 85 84 81 76 73 67 63 68 83 91 95 110 115 113 114 114 126 128 123 110 79 350 341 348 26 76 87 105 107 96 84 72 68 92
80 83 84 83 80 78 69 64 60 74 89 87 82 75 72 66 59 76 99 91 97 121 134 140 138 143 145 142 135 168 309 316 321 339 82 96 111 116 117 112 25 359 38
72 75 75 73 71 69 71 68 56 53 74 92 84 77 79 78 67 65 92 99 91 97 147 165 172 176 173 168 176 239 286 301 309 339 65 100 129 150 184 206 261 283 134
72 70 70 66 60 60 68 64 58 51 56 111 110 78 67 72 88 95 104 110 104 107 124 211 212 199 183 189 206 232 254 282 291 4 66 123 161 199 221 226 220 198 253
74 64 64 60 51 44 53 60 53 44 29 48 93 81 67 46 52 92 135 146 120 127 279 264 239 219 197 204 224 225 254 274 287 333 67 168 202 223 229 225 222 238 258
99 73 63 68 54 40 34 51 42 33 28 25 29 26 33 28 28 45 87 141 230 292 352 324 280 245 237 227 219 237 256 274 289 292 202 184 217 225 228 232 235 243 256
100 85 58 65 71 49 27 23 38 36 29 42 31 19 20 5 357 357 32 35 39 3 318 300 274 276 271 259 241 244 257 265 264 259 202 192 230 240 243 242 241 248 254
110 109 87 53 63 55 42 3 28 26 23 30 21 4 1 352 332 347 354 16 345 335 296 281 268 256 244 246 259 259 257 258 261 239 196 200 223 241 253 252 246 250 255
114 112 109 88 65 54 33 3 25 18 13 15 10 349 348 3 349 336 331 340 331 302 285 279 281 258 233 240 245 258 263 277 268 233 187 205 229 238 247 252 252 256 259
150 137 128 123 84 53 8 338 14 351 9 338 330 327 337 350 345 329 278 252 295 299 282 264 260 267 250 243 251 262 260 261 271 249 202 202 222 236 247 250 256 259 258
148 140 135 119 78 26 333 290 284 299 314 294 326 323 317 320 324 324 270 251 299 297 289 243 221 249 257 257 264 268 267 256 255 258 232 202 197 212 234 256 263 265 264
152 150 146 139 153 227 293 282 271 275 272 292 316 335 320 314 314 308 290 283 295 283 273 262 239 225 258 264 269 266 260 255 241 242 239 207 188 201 213 239 256 264 268
101 135 140 145 156 208 247 273 288 261 244 270 272 271 296 301 299 299 282 290 281 250 262 267 261 242 256 258 281 281 268 257 235 209 233 222 202 213 215 232 240 250 262
99 104 153 170 182 184 236 263 260 271 273 267 246 256 254 260 268 269 268 278 264 240 246 257 271 258 254 260 309 306 288 261 234 205 218 241 225 220 222 231 230 238 252
150 182 189 197 200 199 216 247 243 254 260 270 265 260 259 251 252 255 238 246 253 248 252 254 253 248 257 216 213 300 287 285 283 270 235 239 243 237 235 238 229 232 240
182 217 253 233 217 209 214 248 273 276 273 270 271 255 254 257 252 252 244 242 243 239 243 244 233 232 242 245 204 196 222 243 287 254 239 234 242 254 247 246 240 237 244
218 218 247 238 229 216 209 231 241 252 255 257 261 254 251 252 247 247 242 242 242 240 243 251 245 239 225 236 240 233 233 242 239 263 269 249 247 257 259 268 258 248 248
78 67 254 251 271 247 238 231 244 256 262 265 266 264 264 254 244 243 242 238 238 243 241 243 254 243 234 234 236 253 261 267 249 250 273 273 269 255 255 255 246 243 246
84 32 297 266 271 265 251 248 245 251 257 264 267 268 268 262 250 246 244 240 238 238 238 237 245 245 237 238 240 240 246 242 249 251 270 284 277 267 259 254 248 243 248
Height
1503 1503 1505 1505 1506 1507 1508 1509 1510 1511 1512 1513 1513 1514 1515 1515 1516 1517 1517 1518 1518 1519 1519 1519 1520 1520 1521 1521 1521 1522 1522 1522 1522 1523 1524 1524 1525 1525 1526 1526 1526 1526 1527
1503 1503 1505 1505 1506 1507 1508 1509 1510 1511 1512 1513 1513 1514 1515 1516 1516 1517 1518 1518 1518 1519 1519 1519 1520 1520 1521 1521 1522 1522 1522 1523 1523 1523 1524 1525 1525 1526 1526 1526 1527 1527 1527
1502 1503 1504 1505 1506 1507 1508 1509 1510 1511 1512 1513 1513 1514 1515 1515 1516 1517 1518 1518 1518 1519 1519 1520 1520 1520 1521 1521 1522 1522 1523 1523 1524 1524 1524 1525 1525 1526 1526 1527 1527 1527 1527
1502 1502 1503 1505 1506 1507 1508 1509 1510 1511 1512 1512 1513 1514 1515 1515 1516 1517 1517 1518 1518 1519 1519 1520 1520 1520 1521 1521 1522 1522 1523 1523 1524 1524 1525 1525 1526 1526 1526 1527 1527 1527 1527
1502 1502 1503 1505 1506 1507 1508 1508 1509 1510 1511 1512 1513 1514 1514 1515 1516 1516 1517 1518 1518 1518 1519 1519 1520 1520 1521 1521 1522 1522 1523 1523 1524 1524 1525 1525 1526 1526 1526 1526 1527 1527 1527
1502 1502 1503 1504 1505 1506 1507 1508 1509 1510 1510 1511 1512 1513 1514 1515 1515 1516 1516 1517 1517 1518 1518 1519 1519 1520 1520 1521 1521 1522 1523 1523 1524 1524 1524 1525 1525 1526 1526 1526 1526 1526 1526
1501 1502 1503 1504 1505 1506 1506 1507 1508 1509 1510 1510 1511 1512 1513 1514 1514 1515 1516 1516 1517 1517 1518 1518 1518 1519 1519 1520 1521 1521 1522 1522 1523 1523 1524 1524 1524 1525 1525 1525 1526 1526 1526
1501 1502 1503 1504 1505 1505 1506 1506 1507 1508 1509 1510 1511 1511 1512 1513 1513 1514 1514 1515 1515 1516 1516 1517 1517 1518 1518 1519 1520 1520 1521 1522 1522 1522 1523 1523 1524 1524 1524 1524 1525 1525 1525
1501 1501 1502 1503 1504 1504 1505 1506 1506 1507 1508 1509 1509 1510 1511 1511 1512 1512 1513 1514 1514 1515 1515 1516 1516 1517 1517 1518 1519 1519 1520 1521 1521 1521 1522 1522 1522 1523 1523 1523 1523 1523 1523
1500 1501 1501 1502 1502 1503 1504 1504 1505 1506 1506 1507 1508 1509 1509 1510 1510 1511 1511 1512 1513 1513 1514 1514 1515 1515 1516 1517 1517 1518 1519 1519 1520 1520 1520 1521 1521 1521 1521 1521 1522 1522 1522
1499 1500 1500 1501 1501 1502 1502 1503 1504 1504 1505 1506 1506 1507 1508 1508 1509 1509 1510 1511 1511 1512 1512 1513 1513 1514 1514 1515 1516 1517 1517 1518 1518 1518 1519 1519 1519 1519 1520 1520 1520 1520 1520
1498 1499 1499 1500 1500 1501 1501 1501 1502 1502 1503 1503 1504 1505 1505 1506 1507 1507 1508 1509 1510 1510 1511 1511 1512 1512 1513 1513 1514 1515 1515 1516 1516 1516 1516 1517 1517 1517 1517 1517 1518 1518 1518
1497 1497 1498 1499 1499 1499 1499 1499 1500 1500 1501 1502 1502 1503 1503 1504 1505 1505 1506 1507 1507 1508 1508 1509 1510 1510 1511 1511 1512 1513 1513 1514 1514 1514 1514 1514 1515 1515 1515 1515 1515 1515 1515
1495 1495 1496 1497 1497 1497 1498 1498 1498 1498 1498 1499 1500 1501 1501 1502 1502 1503 1503 1504 1505 1505 1506 1507 1507 1508 1509 1509 1510 1511 1511 1511 1512 1512 1512 1512 1512 1512 1512 1512 1512 1513 1513
1493 1493 1494 1495 1495 1496 1496 1496 1495 1496 1496 1497 1497 1498 1499 1499 1500 1501 1501 1502 1502 1503 1504 1504 1505 1505 1506 1507 1507 1508 1508 1509 1509 1509 1509 1510 1510 1510 1510 1510 1510 1510 1510
1491 1491 1491 1492 1493 1493 1493 1493 1493 1494 1494 1495 1495 1496 1496 1497 1498 1498 1499 1499 1500 1500 1501 1502 1502 1503 1503 1504 1504 1505 1506 1506 1507 1507 1507 1507 1507 1507 1507 1507 1507 1507 1507
1488 1489 1489 1490 1490 1491 1491 1491 1491 1492 1492 1492 1493 1493 1494 1494 1494 1495 1496 1496 1497 1498 1498 1499 1499 1500 1501 1501 1501 1502 1502 1503 1503 1503 1503 1503 1504 1504 1504 1504 1504 1504 1504
1486 1487 1487 1487 1488 1488 1488 1489 1489 1489 1489 1490 1490 1490 1491 1492 1492 1493 1493 1493 1494 1495 1495 1496 1496 1497 1497 1498 1498 1498 1499 1499 1500 1500 1500 1500 1500 1500 1501 1501 1501 1501 1501
1484 1484 1484 1485 1485 1485 1486 1486 1486 1486 1487 1487 1487 1488 1488 1489 1489 1490 1490 1490 1491 1491 1492 1493 1493 1494 1494 1494 1495 1495 1495 1495 1496 1497 1497 1497 1497 1497 1497 1498 1498 1498 1498
1481 1482 1482 1482 1483 1483 1483 1483 1483 1484 1484 1484 1484 1484 1485 1485 1486 1486 1487 1488 1488 1488 1489 1489 1490 1490 1491 1491 1491 1492 1492 1492 1492 1493 1493 1494 1494 1494 1494 1494 1494 1494 1494
1478 1479 1479 1479 1480 1480 1480 1480 1480 1480 1480 1481 1481 1481 1482 1482 1483 1483 1484 1484 1485 1485 1485 1486 1486 1487 1487 1488 1488 1487 1488 1488 1488 1489 1490 1490 1490 1490 1490 1490 1490 1490 1489
1476 1476 1476 1476 1477 1477 1477 1477 1477 1477 1477 1478 1478 1478 1479 1479 1479 1480 1480 1481 1481 1481 1482 1482 1483 1483 1484 1485 1484 1484 1484 1485 1484 1485 1485 1485 1486 1486 1486 1485 1485 1485 1485
1473 1473 1473 1473 1474 1474 1474 1474 1474 1474 1474 1474 1474 1474 1475 1475 1476 1476 1476 1477 1477 1478 1478 1478 1479 1479 1480 1481 1481 1482 1481 1480 1480 1480 1480 1481 1481 1481 1481 1481 1481 1480 1480
1470 1471 1471 1470 1471 1471 1471 1471 1470 1470 1470 1470 1470 1471 1471 1471 1471 1472 1472 1473 1473 1473 1474 1474 1475 1476 1476 1476 1477 1478 1479 1478 1478 1475 1475 1476 1477 1477 1477 1477 1476 1475 1475
1468 1468 1468 1468 1468 1468 1468 1467 1467 1467 1467 1467 1467 1467 1467 1467 1467 1468 1468 1468 1468 1469 1469 1470 1471 1471 1472 1472 1472 1473 1473 1474 1473 1473 1470 1470 1471 1472 1472 1472 1471 1470 1470
1466 1465 1465 1465 1464 1465 1464 1464 1464 1464 1463 1463 1463 1463 1463 1463 1463 1463 1463 1463 1464 1464 1464 1465 1466 1466 1467 1467 1468 1468 1468 1468 1468 1468 1467 1465 1465 1466 1466 1466 1466 1466 1465